This is the latest recevied weather packets stored in our database for station/object KA7EII-13. If no packets are shown the sender has not sent any weather packets the latest 10 day(s).
| Time | Temp. | Humidity | Pressure | Rain* | Wind** | Luminosity | Snow |
|---|---|---|---|---|---|---|---|
| 1777225569 | 6.67° C | 68% | 1092.9 hPa | 0 mm | - | 224 W/m² | - |
| 1777225266 | 6.11° C | 67% | 1093 hPa | 0 mm | - | 257 W/m² | - |
| 1777224962 | 6.11° C | 69% | 1092.9 hPa | 0 mm | - | 294 W/m² | - |
| 1777224661 | 6.11° C | 69% | 1093.1 hPa | 0 mm | - | 299 W/m² | - |
| 1777224355 | 5.56° C | 69% | 1093.1 hPa | 0 mm | - | 395 W/m² | - |
| 1777224052 | 5.56° C | 69% | 1093 hPa | 0 mm | - | 370 W/m² | - |
| 1777223749 | 5° C | 71% | 1093.1 hPa | 0 mm | - | 297 W/m² | - |
| 1777223444 | 5° C | 71% | 1093 hPa | 0 mm | - | 296 W/m² | - |
| 1777223143 | 5° C | 72% | 1093 hPa | 0 mm | - | 286 W/m² | - |
| 1777222839 | 5° C | 75% | 1093.1 hPa | 0 mm | - | 237 W/m² | - |
| 1777222537 | 4.44° C | 77% | 1092.8 hPa | 0 mm | - | 245 W/m² | - |
| 1777222234 | 4.44° C | 75% | 1092.9 hPa | 0 mm | - | 251 W/m² | - |
| 1777221932 | 3.89° C | 79% | 1092.9 hPa | 0 mm | - | 209 W/m² | - |
| 1777221628 | 3.89° C | 77% | 1092.8 hPa | 0 mm | - | 177 W/m² | - |
| 1777221325 | 3.89° C | 78% | 1092.7 hPa | 0 mm | - | 167 W/m² | - |
| 1777221023 | 3.89° C | 80% | 1092.8 hPa | 0 mm | - | 134 W/m² | - |
| 1777220721 | 3.33° C | 80% | 1092.8 hPa | 0 mm | - | 121 W/m² | - |
| 1777220417 | 3.33° C | 80% | 1092.8 hPa | 0 mm | - | 112 W/m² | - |
| 1777220112 | 3.33° C | 82% | 1093 hPa | 0 mm | - | 124 W/m² | - |
| 1777219809 | 3.33° C | 84% | 1092.9 hPa | 0 mm | - | 121 W/m² | - |
| 1777219507 | 3.33° C | 88% | 1092.8 hPa | 0 mm | - | 116 W/m² | - |
| 1777219204 | 2.78° C | 89% | 1092.7 hPa | 0 mm | - | 130 W/m² | - |
| 1777218898 | 2.78° C | 90% | 1092.8 hPa | 0 mm | - | 137 W/m² | - |
| 1777218595 | 2.78° C | 91% | 1092.8 hPa | 0 mm | - | 112 W/m² | - |
| 1777218295 | 2.78° C | 92% | 1092.9 hPa | 0 mm | - | 95 W/m² | - |
* Rain latest hour (hover to see other rain measurements)
** Current wind speed in m/s (hover to see current wind gust speed)